Location: Prague
(50.0830°N, 14.4670°E)
Time: 02:32:57
(UTC+02:00)

FO-29 - Pass Details

Date: 09 April 2023
Orbit: 799 x 1322 km, 98.5° (Epoch: 29 May)

Event Time Altitude Azimuth Distance (km) Brightness Sun altitude
Rises 03:51:00 0° 27° (NNE) 4,166 14.0 -22.0°
Reaches altitude 10° 03:57:13 10° 66° (ENE) 3,044 13.1 -21.3°
Maximum altitude 03:58:12 10° 75° (ENE) 2,995 12.9 -21.2°
Drops below altitude 10° 03:59:09 10° 83° (E) 2,990 12.8 -21.1°
Sets 04:04:49 0° 123° (ESE) 3,773 12.8 -20.4°
